Regional Weather Roundup
Issued by NWS

Home | Current Version | Previous Version | Graphics & Text | Print | Product List | Glossary On
Versions: 1 2 3 4 5 6 7 8 9 10 11 12 13 14 15 16 17 18 19 20 21 22 23 24 25 26 27 28 29 30 31 32 33 34 35 36 37 38 39 40 41 42 43 44 45 46 47 48 49 50
000
ASUS44 KMEG 251400
RWRTN
TENNESSEE HOURLY STATE WEATHER ROUNDUP
NATIONAL WEATHER SERVICE MEMPHIS TN
900 AM CDT THU AUG 25 2016

TNZ002-004-019-021-049-052-054-088>092-251500-
WEST TENNESSEE

CITY           SKY/WX    TMP DP  RH WIND       PRES   REMARKS
MEMPHIS INTL   MOSUNNY   87  75  67 CALM      30.13R HX  96
NWS MEMPHIS      N/A     86 N/A N/A MISG        N/A
JACKSON        SUNNY     83  77  82 CALM      30.14S HX  92
DYERSBURG      MOSUNNY  N/A N/A N/A MISG        N/A
UNION CITY     SUNNY     84  79  84 CALM      30.11F HX  96
PARIS          SUNNY     82  75  78 CALM      30.15S
LEXINGTON      SUNNY     82  75  78 CALM      30.15S
$$

TNZ008-025-027-028-033-062-065-066-251500-
NORTH MIDDLE TENNESSEE

CITY           SKY/WX    TMP DP  RH WIND       PRES   REMARKS
NASHVILLE      MOSUNNY   83  73  72 S7        30.17S
CLARKSVILLE    SUNNY     82  75  79 S3        30.14F
COOKEVILLE     MOSUNNY   81  73  78 SW7       30.19S
CROSSVILLE     MOSUNNY   77  71  82 VRB3      30.25F
$$

TNZ061-075-076-078-094-096-097-251500-
SOUTH MIDDLE TENNESSEE

CITY           SKY/WX    TMP DP  RH WIND       PRES   REMARKS
TULLAHOMA      SUNNY     81  72  74 SW7       30.21S
WINCHESTER     SUNNY     81  73  78 SE5       30.21R
MCMINNVILLE    SUNNY     82  77  83 SW5       30.20S HX  91
COLUMBIA       SUNNY     84  84 100 S6        30.15F HX 104
SHELBYVILLE    MOSUNNY   82  75  78 S5        30.19S
$$

TNZ017-018-042-046-047-251500-
NORTHEAST TENNESSEE

CITY           SKY/WX    TMP DP  RH WIND       PRES   REMARKS
TRI CITIES     MOSUNNY   74  69  85 SW3       30.25S
$$

TNZ012-013-036-069-073-074-251500-
CENTRAL EAST TENNESSEE

CITY           SKY/WX    TMP DP  RH WIND       PRES   REMARKS
KNOXVILLE      MOSUNNY   79  70  74 SW7       30.21S
GATLINBURG     MOSUNNY   79  70  73 CALM      30.21F
$$

TNZ083-085-099-251500-
SOUTHEAST TENNESSEE

CITY           SKY/WX    TMP DP  RH WIND       PRES   REMARKS
CHATTANOOGA    MOSUNNY   81  69  67 S8        30.21F
$$

SKY/WX REPORTED AS FAIR MEANS FEW OR NO CLOUDS BELOW
12 THOUSAND FEET.




USA.gov is the U.S. government's official web portal to all federal, state and local government web resources and services.